User: anonymous   Login
Location: Igon
(43.1667°N, 0.2333°W)
Time: 07:46:41
(UTC+00:00)
Language:

EO 1 Delta rocket - Orbit

View from above orbital plane
View from above orbital plane
View from above satellite
View from above satellite

Ground track
Ground track

The orbit data is extracted from the following two-line orbital elements,

1 26622U 00075D   21057.92048079 -.00000731  00000-0 -63874-3 0  9998
2 26622  95.4172 205.2645 0717828 194.1273 285.2155 13.04467412964775
Epoch (UTC): 26 February 2021 22:05:29
Eccentricity: 0.0717828
inclination: 95.4172°
perigee height: 697 km
apogee height: 1792 km
right ascension of ascending node: 205.2645°
argument of perigee: 194.1273°
revolutions per day: 13.04467412
mean anomaly at epoch: 285.2155°
orbit number at epoch: 96477

The dashed part of the orbit path shows where the satellite is in the earth's shadow,  

DLR